Вернуться в каталог

CZ-3A DEB

LostHEO
NORAD 40156·DEBRIS·🇨🇳 China

Запущен Feb 2, 2007 с Xichang Satellite Launch Center

Loading…

Ближайшие Пролёты (ближайшие 24 часа)

TLE

УстаревшееSource: Space-Track

Эпоха: Oct 30, 2022, 04:16 UTC

1 40156U 07003AQ  22303.17838913  .00000066  00000-0  48402-3 0  9999
2 40156  25.8485 261.8383 7543012 241.5232 207.2155  1.84547705 84502

Отслеживайте CZ-3A DEB в реальном времени с AllMySat

Download on the App Store